GW4911 Weather Reports


time (UTC)temp
F
wind
direction
speed
knots
gust
knots
rain 1hr
in
rain 24hr
in
rain mn
in
humidity
%
barometer
mb
20260504050508 56 108 0.9 1.7 0.00 0.00 0.00 46 1000.4
20260504050005 56 119 0.9 1.7 0.00 0.00 0.00 46 1000.5
20260504045500 56 160 1.7 2.6 0.00 0.00 0.00 45 1000.5
20260504044957 56 123 0.9 1.7 0.00 0.00 0.00 46 1000.7
20260504044454 56 118 0.9 2.6 0.00 0.00 0.00 47 1000.9
20260504043952 56 131 1.7 1.7 0.00 0.00 0.00 49 1001.0
20260504043449 56 122 0.0 0.9 0.00 0.00 0.00 45 1001.1
20260504042946 56 135 0.0 1.7 0.00 0.00 0.00 45 1001.1
20260504042442 56 120 0.9 1.7 0.00 0.00 0.00 48 1001.3
20260504041939 56 135 1.7 1.7 0.00 0.00 0.00 48 1001.2
20260504041435 55 145 0.9 1.7 0.00 0.00 0.00 47 1001.3
20260504040931 55 119 0.0 0.9 0.00 0.00 0.00 48 1001.5
20260504040429 55 97 0.0 0.0 0.00 0.00 0.00 47 1001.6
20260504035925 55 138 0.0 0.0 0.00 0.00 0.00 47 1001.6
20260504035423 55 110 0.0 0.9 0.00 0.00 0.00 47 1001.8
20260504034919 56 98 0.0 0.0 0.00 0.00 0.00 47 1002.0
20260504034417 56 107 0.0 0.0 0.00 0.00 0.00 46 1002.0
20260504033914 56 118 0.0 0.9 0.00 0.00 0.00 45 1002.0
20260504033412 56 106 0.0 0.9 0.00 0.00 0.00 46 1002.2
20260504032908 56 90 0.0 0.0 0.00 0.00 0.00 45 1002.4
20260504032405 56 99 0.0 0.0 0.00 0.00 0.00 43 1002.5
20260504031902 57 99 0.0 0.0 0.00 0.00 0.00 42 1002.5
20260504031359 57 99 0.0 0.0 0.00 0.00 0.00 43 1002.6
20260504030855 57 99 0.0 0.9 0.00 0.00 0.00 43 1002.7
20260504030353 56 182 0.0 0.0 0.00 0.00 0.00 45 1003.0
20260504025848 55 182 0.0 0.0 0.00 0.00 0.00 46 1002.7
20260504025346 56 182 0.0 0.0 0.00 0.00 0.00 46 1002.8
20260504024842 56 182 0.0 0.0 0.00 0.00 0.00 44 1002.8
20260504024339 56 182 0.0 0.0 0.00 0.00 0.00 44 1003.0
20260504023836 56 203 0.0 0.0 0.00 0.00 0.00 44 1002.8
20260504023333 56 203 0.0 0.0 0.00 0.00 0.00 43 1002.8
20260504022828 57 203 0.0 0.0 0.00 0.00 0.00 41 1003.1
20260504022325 58 203 0.0 0.0 0.00 0.00 0.00 40 1003.2
20260504021821 56 203 0.0 0.0 0.00 0.00 0.00 41 1003.1
20260504021320 57 203 0.0 0.0 0.00 0.00 0.00 41 1003.2
20260504020816 58 203 0.0 0.0 0.00 0.00 0.00 40 1003.0
20260504020313 58 210 0.0 0.0 0.00 0.00 0.00 40 1002.8
20260504015808 59 210 0.0 0.0 0.00 0.00 0.00 40 1003.1
20260504015305 60 210 0.0 0.0 0.00 0.00 0.00 39 1003.1
20260504014801 60 210 0.0 0.0 0.00 0.00 0.00 39 1003.1
20260504014257 61 210 0.0 0.0 0.00 0.00 0.00 38 1003.0
20260504013755 61 198 0.0 0.0 0.00 0.00 0.00 37 1003.1
20260504013253 62 209 0.0 0.9 0.00 0.00 0.00 36 1003.2
20260504012749 63 228 0.0 2.6 0.00 0.00 0.00 35 1003.2
20260504012247 64 252 1.7 1.7 0.00 0.00 0.00 34 1003.1
20260504011744 63 242 0.9 1.7 0.00 0.00 0.00 34 1003.1
20260504011240 64 221 0.0 1.7 0.00 0.00 0.00 34 1003.0
20260504010736 64 229 0.0 1.7 0.00 0.00 0.00 34 1003.2
20260504010232 64 230 0.0 0.9 0.00 0.00 0.00 33 1003.1
20260504005729 65 229 0.0 0.9 0.00 0.00 0.00 33 1003.3
20260504005227 65 235 0.0 0.0 0.00 0.00 0.00 33 1003.1
20260504004724 66 232 0.0 0.0 0.00 0.00 0.00 32 1003.2
20260504004221 66 277 1.7 2.6 0.00 0.00 0.00 31 1003.3
20260504003717 67 220 0.9 1.7 0.00 0.00 0.00 31 1003.2
20260504003215 67 260 1.7 2.6 0.00 0.00 0.00 30 1003.2
20260504002711 68 272 2.6 3.5 0.00 0.00 0.00 29 1003.3
20260504002208 68 243 5.2 6.1 0.00 0.00 0.00 28 1003.3
20260504001706 68 234 2.6 3.5 0.00 0.00 0.00 29 1003.6
20260504001202 67 232 1.7 2.6 0.00 0.00 0.00 30 1003.7
20260504000659 67 299 0.9 1.7 0.00 0.00 0.00 30 1003.6
20260504000156 66 277 1.7 3.5 0.00 0.00 0.00 30 1003.5
20260503235654 67 246 2.6 3.5 0.00 0.00 0.00 30 1003.6
20260503235151 67 307 1.7 6.1 0.00 0.00 0.00 30 1003.5
20260503234649 67 296 1.7 3.5 0.00 0.00 0.00 30 1003.4
20260503234147 68 295 3.5 7.0 0.00 0.00 0.00 28 1003.5
20260503233643 69 268 3.5 7.0 0.00 0.00 0.00 28 1003.5
20260503233139 70 288 3.5 3.5 0.00 0.00 0.00 28 1003.6
20260503232636 69 296 0.9 1.7 0.00 0.00 0.00 28 1003.7
20260503232134 69 259 5.2 7.0 0.00 0.00 0.00 27 1003.6
20260503231632 69 259 2.6 5.2 0.00 0.00 0.00 28 1003.8
20260503231128 70 285 2.6 5.2 0.00 0.00 0.00 28 1003.7
20260503230625 70 268 1.7 5.2 0.00 0.00 0.00 27 1003.9
20260503230122 70 235 5.2 6.1 0.00 0.00 0.00 28 1003.7
20260503225620 70 249 0.9 2.6 0.00 0.00 0.00 29 1003.6
20260503225119 70 285 2.6 9.6 0.00 0.00 0.00 28 1003.8
20260503224617 70 343 0.0 2.6 0.00 0.00 0.00 29 1004.0
20260503224114 70 267 0.9 7.0 0.00 0.00 0.00 26 1004.0
20260503223612 69 303 3.5 7.8 0.00 0.00 0.00 27 1003.9
20260503223107 70 222 7.0 8.7 0.00 0.00 0.00 27 1004.0
20260503222606 69 244 1.7 3.5 0.00 0.00 0.00 26 1003.9
20260503222103 70 287 5.2 7.0 0.00 0.00 0.00 26 1004.0
20260503221601 70 318 1.7 2.6 0.00 0.00 0.00 30 1004.1
20260503221059 69 284 0.9 8.7 0.00 0.00 0.00 28 1004.2
20260503220555 69 276 1.7 8.7 0.00 0.00 0.00 28 1004.1
20260503220052 69 289 2.6 7.8 0.00 0.00 0.00 27 1004.2
20260503215549 69 318 7.8 8.7 0.00 0.00 0.00 26 1004.2
20260503215046 69 292 6.1 8.7 0.00 0.00 0.00 26 1004.3
20260503214544 69 3 5.2 11.3 0.00 0.00 0.00 26 1004.5
20260503214040 69 239 3.5 13.0 0.00 0.00 0.00 25 1004.2
20260503213539 69 293 7.0 8.7 0.00 0.00 0.00 25 1004.3
20260503213035 69 232 4.3 11.3 0.00 0.00 0.00 24 1004.3
20260503212532 69 322 1.7 8.7 0.00 0.00 0.00 27 1004.4
20260503212030 70 308 4.3 8.7 0.00 0.00 0.00 24 1004.4
20260503211527 70 302 3.5 8.7 0.00 0.00 0.00 25 1004.5
20260503211022 70 300 3.5 7.8 0.00 0.00 0.00 27 1004.4
20260503210519 70 302 0.9 6.1 0.00 0.00 0.00 26 1004.6
20260503210015 70 14 1.7 5.2 0.00 0.00 0.00 26 1004.4
20260503205512 70 283 3.5 5.2 0.00 0.00 0.00 26 1004.5
20260503205008 69 252 0.0 5.2 0.00 0.00 0.00 28 1004.7
20260503204505 69 296 1.7 6.1 0.00 0.00 0.00 27 1004.7
20260503204002 68 1 4.3 6.1 0.00 0.00 0.00 27 1004.8
20260503203459 68 199 5.2 7.0 0.00 0.00 0.00 24 1004.7
20260503202956 68 358 1.7 3.5 0.00 0.00 0.00 24 1004.6
20260503202454 68 26 5.2 7.8 0.00 0.00 0.00 25 1004.6
20260503201952 68 2 7.0 13.9 0.00 0.00 0.00 25 1004.8
20260503201449 68 2 1.7 8.7 0.00 0.00 0.00 25 1004.8
20260503200947 68 349 5.2 7.0 0.00 0.00 0.00 26 1005.0
20260503200443 67 4 5.2 7.8 0.00 0.00 0.00 24 1005.0
20260503195939 67 323 5.2 11.3 0.00 0.00 0.00 24 1005.1
20260503195437 68 344 5.2 9.6 0.00 0.00 0.00 26 1005.0
20260503194933 68 291 6.1 8.7 0.00 0.00 0.00 22 1005.2
20260503194431 67 340 2.6 7.8 0.00 0.00 0.00 24 1004.9
20260503193926 68 336 4.3 9.6 0.00 0.00 0.00 25 1004.9
20260503193421 68 301 4.3 6.1 0.00 0.00 0.00 26 1005.0
20260503192917 68 4 4.3 7.8 0.00 0.00 0.00 28 1005.2
20260503192414 68 51 2.6 7.8 0.00 0.00 0.00 28 1005.3
20260503191910 68 286 7.0 11.3 0.00 0.00 0.00 29 1005.3
20260503191408 68 285 6.1 7.8 0.00 0.00 0.00 28 1005.4
20260503190904 68 44 7.0 9.6 0.00 0.00 0.00 29 1005.4
20260503190401 67 302 0.9 6.1 0.00 0.00 0.00 29 1005.3
20260503185858 67 298 1.7 7.0 0.00 0.00 0.00 32 1005.5
20260503185354 68 281 6.1 9.6 0.00 0.00 0.00 28 1005.5
20260503184854 67 359 1.7 7.8 0.00 0.00 0.00 30 1005.6
20260503184350 67 305 3.5 7.8 0.00 0.00 0.00 30 1005.6
20260503183846 67 57 4.3 9.6 0.00 0.00 0.00 27 1005.4
20260503183343 67 304 2.6 7.0 0.00 0.00 0.00 27 1005.4
20260503182840 67 278 5.2 11.3 0.00 0.00 0.00 24 1005.5
20260503182340 66 286 3.5 9.6 0.00 0.00 0.00 31 1005.7
20260503181836 67 336 3.5 8.7 0.00 0.00 0.00 27 1005.5
20260503181333 67 177 6.1 8.7 0.00 0.00 0.00 25 1005.9
20260503180830 67 325 6.1 12.2 0.00 0.00 0.00 28 1005.9
20260503180328 67 327 5.2 13.0 0.00 0.00 0.00 28 1005.7
20260503175824 66 337 4.3 6.1 0.00 0.00 0.00 27 1005.8
20260503175322 66 332 3.5 12.2 0.00 0.00 0.00 34 1005.9
20260503174817 66 276 4.3 12.2 0.00 0.00 0.00 37 1006.0
20260503174316 66 345 7.8 9.6 0.00 0.00 0.00 37 1005.9
20260503173811 66 309 5.2 12.2 0.00 0.00 0.00 39 1006.0
20260503173307 66 322 1.7 6.1 0.00 0.00 0.00 38 1006.0
20260503172804 66 311 6.1 8.7 0.00 0.00 0.00 38 1006.0
20260503172301 65 291 7.8 9.6 0.00 0.00 0.00 38 1006.0
20260503171758 66 244 4.3 7.0 0.00 0.00 0.00 40 1006.1
20260503171254 66 312 3.5 8.7 0.00 0.00 0.00 42 1006.1
20260503170751 67 337 5.2 11.3 0.00 0.00 0.00 39 1006.0
20260503170248 66 272 5.2 7.8 0.00 0.00 0.00 41 1005.9
20260503160210 64 9 3.5 8.7 0.00 0.00 0.00 44 1005.9
20260503150641 62 18 3.5 8.7 0.00 0.00 0.00 46 1005.5
20260503150136 62 328 3.5 9.6 0.00 0.00 0.00 48 1005.5
20260503131030 57 275 3.5 6.1 0.00 0.00 0.00 52 1005.2
20260503130527 57 248 1.7 2.6 0.00 0.00 0.00 52 1005.1
20260503110418 44 113 0.0 0.0 0.00 0.00 0.00 81 1004.1
20260503090320 50 5 0.0 0.0 0.00 0.00 0.00 68 1004.6
20260503081248 54 147 0.0 0.9 0.00 0.00 0.00 58 1004.6
20260503080743 54 161 0.0 0.0 0.00 0.00 0.00 57 1004.7
20260503080242 54 117 0.0 0.9 0.00 0.00 0.00 57 1004.6
20260503072718 55 90 0.9 2.6 0.00 0.00 0.00 55 1004.9
20260503072214 55 123 0.9 1.7 0.00 0.00 0.00 54 1004.9
20260503071711 55 108 0.0 3.5 0.00 0.00 0.00 54 1005.0
20260503071208 55 162 0.9 2.6 0.00 0.00 0.00 53 1005.2
20260503070705 55 114 0.9 2.6 0.00 0.00 0.00 53 1005.2
20260503070203 55 132 0.0 0.9 0.00 0.00 0.00 53 1005.4
20260503060127 56 139 2.6 5.2 0.00 0.00 0.00 51 1006.3
20260503055119 57 186 0.0 0.0 0.00 0.00 0.00 50 1006.8
20260503054615 57 104 1.7 3.5 0.00 0.00 0.00 50 1006.7
20260503054111 57 219 0.0 1.7 0.00 0.00 0.00 51 1006.9
20260503053610 57 209 0.0 0.9 0.00 0.00 0.00 50 1006.8
20260503053108 57 177 0.9 1.7 0.00 0.00 0.00 49 1006.8
20260503052604 57 131 0.9 2.6 0.00 0.00 0.00 49 1006.9